Year,Month,Day,Hour,Minute,Value (Times are PST for temperature in C)
2019,10,27,00,00,6.20
2019,10,27,00,01,6.20
2019,10,27,00,02,6.20
2019,10,27,00,03,6.20
2019,10,27,00,04,6.20
2019,10,27,00,05,6.30
2019,10,27,00,06,6.40
2019,10,27,00,07,6.50
2019,10,27,00,08,6.70
2019,10,27,00,09,6.90
2019,10,27,00,10,7.20
2019,10,27,00,11,7.30
2019,10,27,00,12,7.50
2019,10,27,00,13,7.60
2019,10,27,00,14,7.70
2019,10,27,00,15,7.70
2019,10,27,00,16,7.80
2019,10,27,00,17,7.70
2019,10,27,00,18,7.70
2019,10,27,00,19,7.60
2019,10,27,00,20,7.50
2019,10,27,00,21,7.30
2019,10,27,00,22,7.20
2019,10,27,00,23,7.20
2019,10,27,00,24,7.00
2019,10,27,00,25,6.90
2019,10,27,00,26,6.80
2019,10,27,00,27,6.70
2019,10,27,00,28,6.50
2019,10,27,00,29,6.40
2019,10,27,00,30,6.40
2019,10,27,00,31,6.30
2019,10,27,00,32,6.20
2019,10,27,00,33,6.10
2019,10,27,00,34,6.00
2019,10,27,00,35,6.00
2019,10,27,00,36,5.90
2019,10,27,00,37,5.90
2019,10,27,00,38,5.80
2019,10,27,00,39,5.80
2019,10,27,00,40,5.70
2019,10,27,00,41,5.70
2019,10,27,00,42,5.60
2019,10,27,00,43,5.60
2019,10,27,00,44,5.50
2019,10,27,00,45,5.50
2019,10,27,00,46,5.40
2019,10,27,00,47,5.40
2019,10,27,00,48,5.40
2019,10,27,00,49,5.30
2019,10,27,00,50,5.30
2019,10,27,00,51,5.30
2019,10,27,00,52,5.30
2019,10,27,00,53,5.20
2019,10,27,00,54,5.20
2019,10,27,00,55,5.20
2019,10,27,00,56,5.10
2019,10,27,00,57,5.10
2019,10,27,00,58,5.10
2019,10,27,00,59,5.10
2019,10,27,01,00,5.10
2019,10,27,01,01,5.10
2019,10,27,01,02,5.00
2019,10,27,01,03,5.00
2019,10,27,01,04,5.00
2019,10,27,01,05,5.00
2019,10,27,01,06,5.00
2019,10,27,01,07,5.00
2019,10,27,01,08,5.00
2019,10,27,01,09,4.90
2019,10,27,01,10,4.90
2019,10,27,01,11,4.90
2019,10,27,01,12,4.90
2019,10,27,01,13,4.90
2019,10,27,01,14,4.90
2019,10,27,01,15,4.90
2019,10,27,01,16,4.90
2019,10,27,01,17,4.90
2019,10,27,01,18,4.90
2019,10,27,01,19,4.90
2019,10,27,01,20,4.90
2019,10,27,01,21,4.80
2019,10,27,01,22,4.80
2019,10,27,01,23,4.80
2019,10,27,01,24,4.80
2019,10,27,01,25,4.80
2019,10,27,01,26,4.70
2019,10,27,01,27,4.70
2019,10,27,01,28,4.70
2019,10,27,01,29,4.70
2019,10,27,01,30,4.70
2019,10,27,01,31,4.70
2019,10,27,01,32,4.70
2019,10,27,01,33,4.60
2019,10,27,01,34,4.60
2019,10,27,01,35,4.60
2019,10,27,01,36,4.50
2019,10,27,01,37,4.50
2019,10,27,01,38,4.50
2019,10,27,01,39,4.50
2019,10,27,01,40,4.50
2019,10,27,01,41,4.50
2019,10,27,01,42,4.50
2019,10,27,01,43,4.60
2019,10,27,01,44,4.60
2019,10,27,01,45,4.70
2019,10,27,01,46,4.80
2019,10,27,01,47,4.90
2019,10,27,01,48,5.10
2019,10,27,01,49,5.40
2019,10,27,01,50,5.60
2019,10,27,01,51,5.70
2019,10,27,01,52,5.90
2019,10,27,01,53,5.90
2019,10,27,01,54,6.00
2019,10,27,01,55,6.10
2019,10,27,01,56,6.10
2019,10,27,01,57,6.10
2019,10,27,01,58,6.00
2019,10,27,01,59,6.00
2019,10,27,02,00,5.90
2019,10,27,02,01,5.80
2019,10,27,02,02,5.80
2019,10,27,02,03,5.70
2019,10,27,02,04,5.60
2019,10,27,02,05,5.50
2019,10,27,02,06,5.40
2019,10,27,02,07,5.40
2019,10,27,02,08,5.40
2019,10,27,02,09,5.40
2019,10,27,02,10,5.50
2019,10,27,02,11,5.50
2019,10,27,02,12,5.50
2019,10,27,02,13,5.40
2019,10,27,02,14,5.40
2019,10,27,02,15,5.40
2019,10,27,02,16,5.40
2019,10,27,02,17,5.30
2019,10,27,02,18,5.30
2019,10,27,02,19,5.30
2019,10,27,02,20,5.30
2019,10,27,02,21,5.20
2019,10,27,02,22,5.20
2019,10,27,02,23,5.20
2019,10,27,02,24,5.10
2019,10,27,02,25,5.10
2019,10,27,02,26,5.10
2019,10,27,02,27,5.10
2019,10,27,02,28,5.00
2019,10,27,02,29,5.00
2019,10,27,02,30,5.00
2019,10,27,02,31,4.90
2019,10,27,02,32,4.90
2019,10,27,02,33,4.90
2019,10,27,02,34,4.90
2019,10,27,02,35,4.90
2019,10,27,02,36,4.90
2019,10,27,02,37,4.90
2019,10,27,02,38,4.90
2019,10,27,02,39,4.90
2019,10,27,02,40,4.90
2019,10,27,02,41,4.90
2019,10,27,02,42,4.80
2019,10,27,02,43,4.80
2019,10,27,02,44,4.80
2019,10,27,02,45,4.80
2019,10,27,02,46,4.80
2019,10,27,02,47,4.80
2019,10,27,02,48,4.70
2019,10,27,02,49,4.70
2019,10,27,02,50,4.70
2019,10,27,02,51,4.60
2019,10,27,02,52,4.60
2019,10,27,02,53,4.60
2019,10,27,02,54,4.50
2019,10,27,02,55,4.50
2019,10,27,02,56,4.50
2019,10,27,02,57,4.40
2019,10,27,02,58,4.40
2019,10,27,02,59,4.40
2019,10,27,03,00,4.40
2019,10,27,03,01,4.30
2019,10,27,03,02,4.30
2019,10,27,03,03,4.30
2019,10,27,03,04,4.30
2019,10,27,03,05,4.30
2019,10,27,03,06,4.30
2019,10,27,03,07,4.30
2019,10,27,03,08,4.30
2019,10,27,03,09,4.30
2019,10,27,03,10,4.30
2019,10,27,03,11,4.30
2019,10,27,03,12,4.30
2019,10,27,03,13,4.30
2019,10,27,03,14,4.30
2019,10,27,03,15,4.30
2019,10,27,03,16,4.30
2019,10,27,03,17,4.30
2019,10,27,03,18,4.30
2019,10,27,03,19,4.30
2019,10,27,03,20,4.30
2019,10,27,03,21,4.30
2019,10,27,03,22,4.30
2019,10,27,03,23,4.30
2019,10,27,03,24,4.30
2019,10,27,03,25,4.30
2019,10,27,03,26,4.30
2019,10,27,03,27,4.30
2019,10,27,03,28,4.30
2019,10,27,03,29,4.30
2019,10,27,03,30,4.30
2019,10,27,03,31,4.30
2019,10,27,03,32,4.30
2019,10,27,03,33,4.30
2019,10,27,03,34,4.30
2019,10,27,03,35,4.30
2019,10,27,03,36,4.30
2019,10,27,03,37,4.30
2019,10,27,03,38,4.30
2019,10,27,03,39,4.30
2019,10,27,03,40,4.30
2019,10,27,03,41,4.30
2019,10,27,03,42,4.30
2019,10,27,03,43,4.30
2019,10,27,03,44,4.20
2019,10,27,03,45,4.20
2019,10,27,03,46,4.20
2019,10,27,03,47,4.10
2019,10,27,03,48,4.10
2019,10,27,03,49,4.10
2019,10,27,03,50,4.10
2019,10,27,03,51,4.10
2019,10,27,03,52,4.10
2019,10,27,03,53,4.10
2019,10,27,03,54,4.00
2019,10,27,03,55,4.00
2019,10,27,03,56,4.00
2019,10,27,03,57,4.00
2019,10,27,03,58,3.90
2019,10,27,03,59,3.90
2019,10,27,04,00,3.90
2019,10,27,04,01,3.90
2019,10,27,04,02,3.90
2019,10,27,04,03,3.80
2019,10,27,04,04,3.80
2019,10,27,04,05,3.80
2019,10,27,04,06,3.80
2019,10,27,04,07,3.80
2019,10,27,04,08,3.80
2019,10,27,04,09,3.80
2019,10,27,04,10,3.90
2019,10,27,04,11,3.90
2019,10,27,04,12,3.90
2019,10,27,04,13,3.90
2019,10,27,04,14,3.90
2019,10,27,04,15,3.90
2019,10,27,04,16,3.90
2019,10,27,04,17,3.80
2019,10,27,04,18,3.80
2019,10,27,04,19,3.80
2019,10,27,04,20,3.70
2019,10,27,04,21,3.70
2019,10,27,04,22,3.70
2019,10,27,04,23,3.70
2019,10,27,04,24,3.70
2019,10,27,04,25,3.70
2019,10,27,04,26,3.70
2019,10,27,04,27,3.70
2019,10,27,04,28,3.70
2019,10,27,04,29,3.70
2019,10,27,04,30,3.70
2019,10,27,04,31,3.70
2019,10,27,04,32,3.70
2019,10,27,04,33,3.70
2019,10,27,04,34,3.70
2019,10,27,04,35,3.70
2019,10,27,04,36,3.70
2019,10,27,04,37,3.70
2019,10,27,04,38,3.70
2019,10,27,04,39,3.70
2019,10,27,04,40,3.60
2019,10,27,04,41,3.60
2019,10,27,04,42,3.70
2019,10,27,04,43,3.70
2019,10,27,04,44,3.70
2019,10,27,04,45,3.70
2019,10,27,04,46,3.70
2019,10,27,04,47,3.70
2019,10,27,04,48,3.70
2019,10,27,04,49,3.60
2019,10,27,04,50,3.60
2019,10,27,04,51,3.60
2019,10,27,04,52,3.60
2019,10,27,04,53,3.60
2019,10,27,04,54,3.60
2019,10,27,04,55,3.60
2019,10,27,04,56,3.60
2019,10,27,04,57,3.60
2019,10,27,04,58,3.60
2019,10,27,04,59,3.60
2019,10,27,05,00,3.60
2019,10,27,05,01,3.60
2019,10,27,05,02,3.50
2019,10,27,05,03,3.50
2019,10,27,05,04,3.50
2019,10,27,05,05,3.50
2019,10,27,05,06,3.50
2019,10,27,05,07,3.40
2019,10,27,05,08,3.40
2019,10,27,05,09,3.40
2019,10,27,05,10,3.40
2019,10,27,05,11,3.40
2019,10,27,05,12,3.30
2019,10,27,05,13,3.30
2019,10,27,05,14,3.30
2019,10,27,05,15,3.30
2019,10,27,05,16,3.30
2019,10,27,05,17,3.30
2019,10,27,05,18,3.30
2019,10,27,05,19,3.30
2019,10,27,05,20,3.30
2019,10,27,05,21,3.30
2019,10,27,05,22,3.30
2019,10,27,05,23,3.20
2019,10,27,05,24,3.20
2019,10,27,05,25,3.20
2019,10,27,05,26,3.20
2019,10,27,05,27,3.20
2019,10,27,05,28,3.10
2019,10,27,05,29,3.10
2019,10,27,05,30,3.10
2019,10,27,05,31,3.10
2019,10,27,05,32,3.10
2019,10,27,05,33,3.10
2019,10,27,05,34,3.10
2019,10,27,05,35,3.00
2019,10,27,05,36,3.00
2019,10,27,05,37,3.00
2019,10,27,05,38,3.00
2019,10,27,05,39,3.00
2019,10,27,05,40,3.00
2019,10,27,05,41,3.00
2019,10,27,05,42,3.00
2019,10,27,05,43,3.00
2019,10,27,05,44,3.00
2019,10,27,05,45,3.00
2019,10,27,05,46,3.00
2019,10,27,05,47,3.00
2019,10,27,05,48,2.90
2019,10,27,05,49,2.90
2019,10,27,05,50,2.90
2019,10,27,05,51,2.90
2019,10,27,05,52,2.80
2019,10,27,05,53,2.80
2019,10,27,05,54,2.80
2019,10,27,05,55,2.70
2019,10,27,05,56,2.70
2019,10,27,05,57,2.70
2019,10,27,05,58,2.60
2019,10,27,05,59,2.60
2019,10,27,06,00,2.60
2019,10,27,06,01,2.60
2019,10,27,06,02,2.60
2019,10,27,06,03,2.60
2019,10,27,06,04,2.60
2019,10,27,06,05,2.60
2019,10,27,06,06,2.60
2019,10,27,06,07,2.60
2019,10,27,06,08,2.60
2019,10,27,06,09,2.60
2019,10,27,06,10,2.60
2019,10,27,06,11,2.60
2019,10,27,06,12,2.60
2019,10,27,06,13,2.60
2019,10,27,06,14,2.60
2019,10,27,06,15,2.60
2019,10,27,06,16,2.60
2019,10,27,06,17,2.60
2019,10,27,06,18,2.60
2019,10,27,06,19,2.60
2019,10,27,06,20,2.60
2019,10,27,06,21,2.60
2019,10,27,06,22,2.70
2019,10,27,06,23,2.70
2019,10,27,06,24,2.70
2019,10,27,06,25,2.70
2019,10,27,06,26,2.70
2019,10,27,06,27,2.70
2019,10,27,06,28,2.70
2019,10,27,06,29,2.70
2019,10,27,06,30,2.60
2019,10,27,06,31,2.60
2019,10,27,06,32,2.60
2019,10,27,06,33,2.60
2019,10,27,06,34,2.60
2019,10,27,06,35,2.60
2019,10,27,06,36,2.60
2019,10,27,06,37,2.60
2019,10,27,06,38,2.50
2019,10,27,06,39,2.50
2019,10,27,06,40,2.50
2019,10,27,06,41,2.50
2019,10,27,06,42,2.50
2019,10,27,06,43,2.40
2019,10,27,06,44,2.40
2019,10,27,06,45,2.40
2019,10,27,06,46,2.40
2019,10,27,06,47,2.40
2019,10,27,06,48,2.40
2019,10,27,06,49,2.30
2019,10,27,06,50,2.30
2019,10,27,06,51,2.30
2019,10,27,06,52,2.30
2019,10,27,06,53,2.30
2019,10,27,06,54,2.30
2019,10,27,06,55,2.30
2019,10,27,06,56,2.30
2019,10,27,06,57,2.30
2019,10,27,06,58,2.20
2019,10,27,06,59,2.20
2019,10,27,07,00,2.20
2019,10,27,07,01,2.20
2019,10,27,07,02,2.20
2019,10,27,07,03,2.20
2019,10,27,07,04,2.20
2019,10,27,07,05,2.20
2019,10,27,07,06,2.20
2019,10,27,07,07,2.20
2019,10,27,07,08,2.20
2019,10,27,07,09,2.20
2019,10,27,07,10,2.20
2019,10,27,07,11,2.20
2019,10,27,07,12,2.20
2019,10,27,07,13,2.20
2019,10,27,07,14,2.20
2019,10,27,07,15,2.20
2019,10,27,07,16,2.10
2019,10,27,07,17,2.10
2019,10,27,07,18,2.10
2019,10,27,07,19,2.10
2019,10,27,07,20,2.00
2019,10,27,07,21,2.00
2019,10,27,07,22,2.00
2019,10,27,07,23,2.00
2019,10,27,07,24,2.00
2019,10,27,07,25,2.00
2019,10,27,07,26,1.90
2019,10,27,07,27,1.90
2019,10,27,07,28,1.90
2019,10,27,07,29,1.90
2019,10,27,07,30,1.90
2019,10,27,07,31,1.90
2019,10,27,07,32,1.80
2019,10,27,07,33,1.80
2019,10,27,07,34,1.80
2019,10,27,07,35,1.80
2019,10,27,07,36,1.80
2019,10,27,07,37,1.80
2019,10,27,07,38,1.80
2019,10,27,07,39,1.80
2019,10,27,07,40,1.80
2019,10,27,07,41,1.80
2019,10,27,07,42,1.80
2019,10,27,07,43,1.80
2019,10,27,07,44,1.80
2019,10,27,07,45,1.80
2019,10,27,07,46,1.80
2019,10,27,07,47,1.80
2019,10,27,07,48,1.80
2019,10,27,07,49,1.80
2019,10,27,07,50,1.80
2019,10,27,07,51,1.80
2019,10,27,07,52,1.80
2019,10,27,07,53,1.80
2019,10,27,07,54,1.80
2019,10,27,07,55,1.80
2019,10,27,07,56,1.80
2019,10,27,07,57,1.70
2019,10,27,07,58,1.70
2019,10,27,07,59,1.70
2019,10,27,08,00,1.70
2019,10,27,08,01,1.70
2019,10,27,08,02,1.70
2019,10,27,08,03,1.70
2019,10,27,08,04,1.70
2019,10,27,08,05,1.70
2019,10,27,08,06,1.70
2019,10,27,08,07,1.70
2019,10,27,08,08,1.70
2019,10,27,08,09,1.70
2019,10,27,08,10,1.70
2019,10,27,08,11,1.70
2019,10,27,08,12,1.70
2019,10,27,08,13,1.70
2019,10,27,08,14,1.70
2019,10,27,08,15,1.70
2019,10,27,08,16,1.70
2019,10,27,08,17,1.70
2019,10,27,08,18,1.70
2019,10,27,08,19,1.70
2019,10,27,08,20,1.70
2019,10,27,08,21,1.70
2019,10,27,08,22,1.70
2019,10,27,08,23,1.70
2019,10,27,08,24,1.70
2019,10,27,08,25,1.70
2019,10,27,08,26,1.70
2019,10,27,08,27,1.70
2019,10,27,08,28,1.70
2019,10,27,08,29,1.70
2019,10,27,08,30,1.70
2019,10,27,08,31,1.70
2019,10,27,08,32,1.70
2019,10,27,08,33,1.70
2019,10,27,08,34,1.60
2019,10,27,08,35,1.60
2019,10,27,08,36,1.60
2019,10,27,08,37,1.60
2019,10,27,08,38,1.60
2019,10,27,08,39,1.60
2019,10,27,08,40,1.60
2019,10,27,08,41,1.50
2019,10,27,08,42,1.50
2019,10,27,08,43,1.50
2019,10,27,08,44,1.40
2019,10,27,08,45,1.40
2019,10,27,08,46,1.40
2019,10,27,08,47,1.40
2019,10,27,08,48,1.30
2019,10,27,08,49,1.30
2019,10,27,08,50,1.30
2019,10,27,08,51,1.30
2019,10,27,08,52,1.30
2019,10,27,08,53,1.30
2019,10,27,08,54,1.30
2019,10,27,08,55,1.40
2019,10,27,08,56,1.40
2019,10,27,08,57,1.40
2019,10,27,08,58,1.40
2019,10,27,08,59,1.40
2019,10,27,09,00,1.40
2019,10,27,09,01,1.40
2019,10,27,09,02,1.50
2019,10,27,09,03,1.50
2019,10,27,09,04,1.50
2019,10,27,09,05,1.50
2019,10,27,09,06,1.60
2019,10,27,09,07,1.60
2019,10,27,09,08,1.60
2019,10,27,09,09,1.60
2019,10,27,09,10,1.60
2019,10,27,09,11,1.70
2019,10,27,09,12,1.70
2019,10,27,09,13,1.80
2019,10,27,09,14,1.80
2019,10,27,09,15,1.80
2019,10,27,09,16,1.90
2019,10,27,09,17,2.00
2019,10,27,09,18,2.00
2019,10,27,09,19,2.10
2019,10,27,09,20,2.10
2019,10,27,09,21,2.20
2019,10,27,09,22,2.20
2019,10,27,09,23,2.30
2019,10,27,09,24,2.30
2019,10,27,09,25,2.40
2019,10,27,09,26,2.50
2019,10,27,09,27,2.50
2019,10,27,09,28,2.60
2019,10,27,09,29,2.70
2019,10,27,09,30,2.70
2019,10,27,09,31,2.80
2019,10,27,09,32,2.90
2019,10,27,09,33,2.90
2019,10,27,09,34,3.00
2019,10,27,09,35,3.00
2019,10,27,09,36,3.10
2019,10,27,09,37,3.10
2019,10,27,09,38,3.10
2019,10,27,09,39,3.10
2019,10,27,09,40,3.10
2019,10,27,09,41,3.10
2019,10,27,09,42,3.10
2019,10,27,09,43,3.20
2019,10,27,09,44,3.20
2019,10,27,09,45,3.30
2019,10,27,09,46,3.30
2019,10,27,09,47,3.40
2019,10,27,09,48,3.50
2019,10,27,09,49,3.50
2019,10,27,09,50,3.60
2019,10,27,09,51,3.60
2019,10,27,09,52,3.70
2019,10,27,09,53,3.70
2019,10,27,09,54,3.80
2019,10,27,09,55,3.80
2019,10,27,09,56,3.90
2019,10,27,09,57,4.00
2019,10,27,09,58,4.10
2019,10,27,09,59,4.20
2019,10,27,10,00,4.30
2019,10,27,10,01,4.40
2019,10,27,10,02,4.40
2019,10,27,10,03,4.50
2019,10,27,10,04,4.60
2019,10,27,10,05,4.70
2019,10,27,10,06,4.80
2019,10,27,10,07,4.90
2019,10,27,10,08,5.00
2019,10,27,10,09,5.10
2019,10,27,10,10,5.20
2019,10,27,10,11,5.30
2019,10,27,10,12,5.40
2019,10,27,10,13,5.50
2019,10,27,10,14,5.60
2019,10,27,10,15,5.70
2019,10,27,10,16,5.70
2019,10,27,10,17,5.80
2019,10,27,10,18,5.90
2019,10,27,10,19,6.00
2019,10,27,10,20,6.10
2019,10,27,10,21,6.10
2019,10,27,10,22,6.20
2019,10,27,10,23,6.30
2019,10,27,10,24,6.40
2019,10,27,10,25,6.50
2019,10,27,10,26,6.60
2019,10,27,10,27,6.70
2019,10,27,10,28,6.70
2019,10,27,10,29,6.80
2019,10,27,10,30,6.80
2019,10,27,10,31,6.80
2019,10,27,10,32,6.90
2019,10,27,10,33,6.90
2019,10,27,10,34,6.90
2019,10,27,10,35,6.90
2019,10,27,10,36,6.90
2019,10,27,10,37,6.90
2019,10,27,10,38,7.00
2019,10,27,10,39,7.00
2019,10,27,10,40,7.00
2019,10,27,10,41,7.10
2019,10,27,10,42,7.10
2019,10,27,10,43,7.10
2019,10,27,10,44,7.20
2019,10,27,10,45,7.20
2019,10,27,10,46,7.20
2019,10,27,10,47,7.30
2019,10,27,10,48,7.30
2019,10,27,10,49,7.40
2019,10,27,10,50,7.50
2019,10,27,10,51,7.60
2019,10,27,10,52,7.70
2019,10,27,10,53,7.80
2019,10,27,10,54,7.90
2019,10,27,10,55,8.00
2019,10,27,10,56,8.10
2019,10,27,10,57,8.20
2019,10,27,10,58,8.20
2019,10,27,10,59,8.30
2019,10,27,11,00,8.30
2019,10,27,11,01,8.40
2019,10,27,11,02,8.40
2019,10,27,11,03,8.50
2019,10,27,11,04,8.60
2019,10,27,11,05,8.60
2019,10,27,11,06,8.60
2019,10,27,11,07,8.70
2019,10,27,11,08,8.70
2019,10,27,11,09,8.80
2019,10,27,11,10,8.80
2019,10,27,11,11,8.90
2019,10,27,11,12,8.90
2019,10,27,11,13,8.90
2019,10,27,11,14,8.90
2019,10,27,11,15,8.90
2019,10,27,11,16,9.00
2019,10,27,11,17,9.00
2019,10,27,11,18,9.10
2019,10,27,11,19,9.10
2019,10,27,11,20,9.10
2019,10,27,11,21,9.20
2019,10,27,11,22,9.20
2019,10,27,11,23,9.20
2019,10,27,11,24,9.20
2019,10,27,11,25,9.20
2019,10,27,11,26,9.20
2019,10,27,11,27,9.20
2019,10,27,11,28,9.20
2019,10,27,11,29,9.20
2019,10,27,11,30,9.20
2019,10,27,11,31,9.20
2019,10,27,11,32,9.20
2019,10,27,11,33,9.30
2019,10,27,11,34,9.30
2019,10,27,11,35,9.30
2019,10,27,11,36,9.30
2019,10,27,11,37,9.30
2019,10,27,11,38,9.30
2019,10,27,11,39,9.30
2019,10,27,11,40,9.30
2019,10,27,11,41,9.30
2019,10,27,11,42,9.40
2019,10,27,11,43,9.40
2019,10,27,11,44,9.40
2019,10,27,11,45,9.50
2019,10,27,11,46,9.50
2019,10,27,11,47,9.60
2019,10,27,11,48,9.60
2019,10,27,11,49,9.60
2019,10,27,11,50,9.70
2019,10,27,11,51,9.70
2019,10,27,11,52,9.80
2019,10,27,11,53,9.80
2019,10,27,11,54,9.80
2019,10,27,11,55,9.80
2019,10,27,11,56,9.80
2019,10,27,11,57,9.80
2019,10,27,11,58,9.80
2019,10,27,11,59,9.80
2019,10,27,12,00,9.90
2019,10,27,12,01,9.90
2019,10,27,12,02,9.90
2019,10,27,12,03,9.90
2019,10,27,12,04,9.90
2019,10,27,12,05,9.90
2019,10,27,12,06,10.00
2019,10,27,12,07,10.00
2019,10,27,12,08,10.00
2019,10,27,12,09,10.10
2019,10,27,12,10,10.10
2019,10,27,12,11,10.20
2019,10,27,12,12,10.20
2019,10,27,12,13,10.20
2019,10,27,12,14,10.20
2019,10,27,12,15,10.20
2019,10,27,12,16,10.20
2019,10,27,12,17,10.30
2019,10,27,12,18,10.30
2019,10,27,12,19,10.30
2019,10,27,12,20,10.30
2019,10,27,12,21,10.30
2019,10,27,12,22,10.40
2019,10,27,12,23,10.40
2019,10,27,12,24,10.40
2019,10,27,12,25,10.30
2019,10,27,12,26,10.30
2019,10,27,12,27,10.20
2019,10,27,12,28,10.20
2019,10,27,12,29,10.20
2019,10,27,12,30,10.20
2019,10,27,12,31,10.30
2019,10,27,12,32,10.30
2019,10,27,12,33,10.30
2019,10,27,12,34,10.40
2019,10,27,12,35,10.40
2019,10,27,12,36,10.40
2019,10,27,12,37,10.50
2019,10,27,12,38,10.50
2019,10,27,12,39,10.50
2019,10,27,12,40,10.50
2019,10,27,12,41,10.60
2019,10,27,12,42,10.60
2019,10,27,12,43,10.70
2019,10,27,12,44,10.80
2019,10,27,12,45,10.80
2019,10,27,12,46,10.90
2019,10,27,12,47,10.90
2019,10,27,12,48,10.90
2019,10,27,12,49,10.90
2019,10,27,12,50,10.90
2019,10,27,12,51,10.90
2019,10,27,12,52,10.90
2019,10,27,12,53,10.90
2019,10,27,12,54,10.80
2019,10,27,12,55,10.80
2019,10,27,12,56,10.80
2019,10,27,12,57,10.70
2019,10,27,12,58,10.70
2019,10,27,12,59,10.60
2019,10,27,13,00,10.60
2019,10,27,13,01,10.50
2019,10,27,13,02,10.50
2019,10,27,13,03,10.40
2019,10,27,13,04,10.40
2019,10,27,13,05,10.50
2019,10,27,13,06,10.50
2019,10,27,13,07,10.50
2019,10,27,13,08,10.60
2019,10,27,13,09,10.60
2019,10,27,13,10,10.70
2019,10,27,13,11,10.70
2019,10,27,13,12,10.80
2019,10,27,13,13,10.80
2019,10,27,13,14,10.80
2019,10,27,13,15,10.90
2019,10,27,13,16,10.90
2019,10,27,13,17,11.00
2019,10,27,13,18,11.00
2019,10,27,13,19,11.10
2019,10,27,13,20,11.10
2019,10,27,13,21,11.00
2019,10,27,13,22,11.00
2019,10,27,13,23,11.00
2019,10,27,13,24,11.00
2019,10,27,13,25,11.00
2019,10,27,13,26,11.00
2019,10,27,13,27,11.00
2019,10,27,13,28,10.90
2019,10,27,13,29,10.80
2019,10,27,13,30,10.80
2019,10,27,13,31,10.70
2019,10,27,13,32,10.70
2019,10,27,13,33,10.70
2019,10,27,13,34,10.70
2019,10,27,13,35,10.70
2019,10,27,13,36,10.70
2019,10,27,13,37,10.70
2019,10,27,13,38,10.70
2019,10,27,13,39,10.80
2019,10,27,13,40,10.80
2019,10,27,13,41,10.80
2019,10,27,13,42,10.80
2019,10,27,13,43,10.70
2019,10,27,13,44,10.70
2019,10,27,13,45,10.60
2019,10,27,13,46,10.60
2019,10,27,13,47,10.60
2019,10,27,13,48,10.60
2019,10,27,13,49,10.70
2019,10,27,13,50,10.60
2019,10,27,13,51,10.60
2019,10,27,13,52,10.60
2019,10,27,13,53,10.70
2019,10,27,13,54,10.70
2019,10,27,13,55,10.70
2019,10,27,13,56,10.80
2019,10,27,13,57,10.80
2019,10,27,13,58,10.80
2019,10,27,13,59,10.80
2019,10,27,14,00,10.80
2019,10,27,14,01,10.80
2019,10,27,14,02,10.80
2019,10,27,14,03,10.80
2019,10,27,14,04,10.70
2019,10,27,14,05,10.70
2019,10,27,14,06,10.70
2019,10,27,14,07,10.60
2019,10,27,14,08,10.60
2019,10,27,14,09,10.60
2019,10,27,14,10,10.60
2019,10,27,14,11,10.70
2019,10,27,14,12,10.80
2019,10,27,14,13,10.80
2019,10,27,14,14,10.80
2019,10,27,14,15,10.80
2019,10,27,14,16,10.80
2019,10,27,14,17,10.90
2019,10,27,14,18,10.90
2019,10,27,14,19,11.00
2019,10,27,14,20,11.00
2019,10,27,14,21,11.10
2019,10,27,14,22,11.10
2019,10,27,14,23,11.10
2019,10,27,14,24,11.10
2019,10,27,14,25,11.10
2019,10,27,14,26,11.10
2019,10,27,14,27,11.10
2019,10,27,14,28,11.00
2019,10,27,14,29,11.00
2019,10,27,14,30,11.00
2019,10,27,14,31,11.00
2019,10,27,14,32,11.00
2019,10,27,14,33,10.90
2019,10,27,14,34,10.90
2019,10,27,14,35,10.80
2019,10,27,14,36,10.80
2019,10,27,14,37,10.80
2019,10,27,14,38,10.80
2019,10,27,14,39,10.80
2019,10,27,14,40,10.80
2019,10,27,14,41,10.80
2019,10,27,14,42,10.80
2019,10,27,14,43,10.80
2019,10,27,14,44,10.90
2019,10,27,14,45,11.00
2019,10,27,14,46,11.00
2019,10,27,14,47,11.10
2019,10,27,14,48,11.10
2019,10,27,14,49,11.10
2019,10,27,14,50,11.20
2019,10,27,14,51,11.20
2019,10,27,14,52,11.20
2019,10,27,14,53,11.20
2019,10,27,14,54,11.20
2019,10,27,14,55,11.20
2019,10,27,14,56,11.20
2019,10,27,14,57,11.20
2019,10,27,14,58,11.20
2019,10,27,14,59,11.20
2019,10,27,15,00,11.20
2019,10,27,15,01,11.20
2019,10,27,15,02,11.20
2019,10,27,15,03,11.20
2019,10,27,15,04,11.30
2019,10,27,15,05,11.30
2019,10,27,15,06,11.30
2019,10,27,15,07,11.40
2019,10,27,15,08,11.40
2019,10,27,15,09,11.40
2019,10,27,15,10,11.40
2019,10,27,15,11,11.40
2019,10,27,15,12,11.40
2019,10,27,15,13,11.40
2019,10,27,15,14,11.50
2019,10,27,15,15,11.50
2019,10,27,15,16,11.50
2019,10,27,15,17,11.60
2019,10,27,15,18,11.60
2019,10,27,15,19,11.60
2019,10,27,15,20,11.70
2019,10,27,15,21,11.80
2019,10,27,15,22,11.80
2019,10,27,15,23,11.80
2019,10,27,15,24,11.90
2019,10,27,15,25,11.90
2019,10,27,15,26,12.00
2019,10,27,15,27,12.00
2019,10,27,15,28,12.10
2019,10,27,15,29,12.10
2019,10,27,15,30,12.10
2019,10,27,15,31,12.10
2019,10,27,15,32,12.00
2019,10,27,15,33,11.90
2019,10,27,15,34,11.80
2019,10,27,15,35,11.60
2019,10,27,15,36,11.50
2019,10,27,15,37,11.40
2019,10,27,15,38,11.30
2019,10,27,15,39,11.30
2019,10,27,15,40,11.30
2019,10,27,15,41,11.20
2019,10,27,15,42,11.20
2019,10,27,15,43,11.20
2019,10,27,15,44,11.10
2019,10,27,15,45,11.10
2019,10,27,15,46,11.00
2019,10,27,15,47,11.00
2019,10,27,15,48,11.10
2019,10,27,15,49,11.10
2019,10,27,15,50,11.10
2019,10,27,15,51,11.10
2019,10,27,15,52,11.10
2019,10,27,15,53,11.10
2019,10,27,15,54,11.00
2019,10,27,15,55,11.00
2019,10,27,15,56,11.00
2019,10,27,15,57,11.00
2019,10,27,15,58,10.90
2019,10,27,15,59,10.90
2019,10,27,16,00,10.80
2019,10,27,16,01,10.80
2019,10,27,16,02,10.80
2019,10,27,16,03,10.70
2019,10,27,16,04,10.60
2019,10,27,16,05,10.50
2019,10,27,16,06,10.40
2019,10,27,16,07,10.40
2019,10,27,16,08,10.40
2019,10,27,16,09,10.30
2019,10,27,16,10,10.30
2019,10,27,16,11,10.30
2019,10,27,16,12,10.30
2019,10,27,16,13,10.30
2019,10,27,16,14,10.30
2019,10,27,16,15,10.30
2019,10,27,16,16,10.30
2019,10,27,16,17,10.30
2019,10,27,16,18,10.30
2019,10,27,16,19,10.30
2019,10,27,16,20,10.40
2019,10,27,16,21,10.40
2019,10,27,16,22,10.40
2019,10,27,16,23,10.30
2019,10,27,16,24,10.30
2019,10,27,16,25,10.30
2019,10,27,16,26,10.30
2019,10,27,16,27,10.20
2019,10,27,16,28,10.20
2019,10,27,16,29,10.20
2019,10,27,16,30,10.20
2019,10,27,16,31,10.20
2019,10,27,16,32,10.20
2019,10,27,16,33,10.20
2019,10,27,16,34,10.20
2019,10,27,16,35,10.20
2019,10,27,16,36,10.20
2019,10,27,16,37,10.20
2019,10,27,16,38,10.20
2019,10,27,16,39,10.20
2019,10,27,16,40,10.20
2019,10,27,16,41,10.20
2019,10,27,16,42,10.20
2019,10,27,16,43,10.20
2019,10,27,16,44,10.20
2019,10,27,16,45,10.20
2019,10,27,16,46,10.20
2019,10,27,16,47,10.20
2019,10,27,16,48,10.20
2019,10,27,16,49,10.10
2019,10,27,16,50,10.10
2019,10,27,16,51,10.10
2019,10,27,16,52,10.10
2019,10,27,16,53,10.00
2019,10,27,16,54,9.90
2019,10,27,16,55,9.90
2019,10,27,16,56,9.80
2019,10,27,16,57,9.70
2019,10,27,16,58,9.60
2019,10,27,16,59,9.50
2019,10,27,17,00,9.40
2019,10,27,17,01,9.30
2019,10,27,17,02,9.20
2019,10,27,17,03,9.10
2019,10,27,17,04,9.10
2019,10,27,17,05,9.00
2019,10,27,17,06,8.90
2019,10,27,17,07,8.80
2019,10,27,17,08,8.70
2019,10,27,17,09,8.70
2019,10,27,17,10,8.60
2019,10,27,17,11,8.50
2019,10,27,17,12,8.50
2019,10,27,17,13,8.40
2019,10,27,17,14,8.30
2019,10,27,17,15,8.30
2019,10,27,17,16,8.20
2019,10,27,17,17,8.20
2019,10,27,17,18,8.10
2019,10,27,17,19,8.10
2019,10,27,17,20,8.00
2019,10,27,17,21,8.00
2019,10,27,17,22,7.90
2019,10,27,17,23,7.80
2019,10,27,17,24,7.80
2019,10,27,17,25,7.80
2019,10,27,17,26,7.70
2019,10,27,17,27,7.70
2019,10,27,17,28,7.60
2019,10,27,17,29,7.60
2019,10,27,17,30,7.50
2019,10,27,17,31,7.50
2019,10,27,17,32,7.40
2019,10,27,17,33,7.40
2019,10,27,17,34,7.30
2019,10,27,17,35,7.30
2019,10,27,17,36,7.20
2019,10,27,17,37,7.20
2019,10,27,17,38,7.20
2019,10,27,17,39,7.20
2019,10,27,17,40,7.10
2019,10,27,17,41,7.10
2019,10,27,17,42,7.00
2019,10,27,17,43,7.00
2019,10,27,17,44,7.00
2019,10,27,17,45,6.90
2019,10,27,17,46,6.90
2019,10,27,17,47,6.90
2019,10,27,17,48,6.80
2019,10,27,17,49,6.80
2019,10,27,17,50,6.70
2019,10,27,17,51,6.70
2019,10,27,17,52,6.70
2019,10,27,17,53,6.70